Location: Newark
(42.7133°N, 87.7910°W)
Time: 07:32:39
(UTC+00:00)

Tiros 1 - Pass Details

Date: 24 September 2019
Orbit: 630 x 664 km, 48.4° (Epoch: 18 October)

Event Time Altitude Azimuth Distance (km) Brightness Sun altitude
Rises 19:00:46 0° 268° (W) 2,972 10.9 43.3°
Reaches altitude 10° 19:03:11 10° 274° (W) 2,057 10.1 43.1°
Maximum altitude 19:07:46 47° 349° (NNW) 860 8.0 42.7°
Drops below altitude 10° 19:12:18 10° 63° (ENE) 2,037 9.4 42.3°
Sets 19:14:42 0° 69° (ENE) 2,942 10.2 42.1°
